Location: Home
(42.5358°N, 72.7383°W)
Time: 11:42:10
(UTC-05:00)

Transit 4A - Pass Details

Date: 08 December 2021
Orbit: 864 x 981 km, 66.8° (Epoch: 19 January)

Event Time Altitude Azimuth Distance (km) Brightness Sun altitude
Rises 19:06:32 0° 239° (WSW) 3,461 11.8 -30.3°
Reaches altitude 10° 19:09:14 10° 249° (WSW) 2,539 11.0 -30.7°
Maximum altitude 19:14:30 33° 312° (NW) 1,464 9.2 -31.7°
Enters shadow 19:16:14 28° 344° (NNW) 1,627 9.2 -32.0°
Drops below altitude 10° 19:19:57 10° 16° (NNE) 2,619 - -32.7°
Sets 19:22:47 0° 26° (NNE) 3,585 - -33.2°
